Thu, 21 Jan 2021 05:56:09 UTC

Information for RPM gmp-1:6.1.1-1.fc25.ppc64le.rpm

ID8433001
Namegmp
Version6.1.1
Release1.fc25
Epoch1
Archppc64le
SummaryA GNU arbitrary precision library
DescriptionThe gmp package contains GNU MP, a library for arbitrary precision arithmetic, signed integers operations, rational numbers and floating point numbers. GNU MP is designed for speed, for both small and very large operands. GNU MP is fast because it uses fullwords as the basic arithmetic type, it uses fast algorithms, it carefully optimizes assembly code for many CPUs' most common inner loops, and it generally emphasizes speed over simplicity/elegance in its operations. Install the gmp package if you need a fast arbitrary precision library.
Build Time2016-06-23 10:40:01 GMT
Size287,654
e91dba716d2cb55a57da7d41ad190a66
LicenseLGPLv3+ or GPLv2+
Provides
gmp = 1:6.1.1-1.fc25
gmp(ppc-64) = 1:6.1.1-1.fc25
libgmp.so.10()(64bit)
Obsoletes No Obsoletes
Conflicts No Conflicts
Requires
/sbin/ldconfig
/sbin/ldconfig
libc.so.6()(64bit)
libc.so.6(GLIBC_2.17)(64bit)
rpmlib(CompressedFileNames) <= 3.0.4-1
rpmlib(FileDigests) <= 4.6.0-1
rpmlib(PayloadFilesHavePrefix) <= 4.0-1
rpmlib(PayloadIsXz) <= 5.2-1
rtld(GNU_HASH)
Recommends No Recommends
Suggests No Suggests
Supplements No Supplements
Enhances No Enhances
Files
1 through 10 of 10
Name ascending sort Size
/usr/lib64/libgmp.so.1016
/usr/lib64/libgmp.so.10.3.1599,392
/usr/share/doc/gmp4,096
/usr/share/doc/gmp/NEWS35,961
/usr/share/doc/gmp/README4,051
/usr/share/licenses/gmp4,096
/usr/share/licenses/gmp/COPYING35,147
/usr/share/licenses/gmp/COPYING.LESSERv37,639
/usr/share/licenses/gmp/COPYINGv218,092
/usr/share/licenses/gmp/COPYINGv335,150
Component of
Page:
1 through 50 of 69027 >>>
Buildroot descending sort Created State
f26-python3-7174551-678610 2016-12-20 17:37:45 expired
f26-python3-7174431-678608 2016-12-20 17:34:42 expired
f26-python3-7174368-678608 2016-12-20 17:34:00 expired
f26-python3-7174337-678608 2016-12-20 17:33:37 expired
f26-python3-7174233-678608 2016-12-20 17:32:03 expired
f26-python3-7174191-678608 2016-12-20 17:31:38 expired
f26-python3-7174106-678608 2016-12-20 17:31:06 expired
f26-python3-7173991-678608 2016-12-20 17:30:14 expired
f26-build-7173971-678605 2016-12-20 17:27:45 expired
f26-build-7173965-678605 2016-12-20 17:24:25 expired
f26-build-7173960-678605 2016-12-20 17:23:20 expired
f26-build-7173949-678605 2016-12-20 17:22:38 expired
f26-build-7173943-678605 2016-12-20 17:18:26 expired
f26-python3-7173924-678607 2016-12-20 17:12:39 expired
f26-python3-7173916-678607 2016-12-20 17:12:13 expired
f26-python3-7173869-678607 2016-12-20 17:11:01 expired
f26-python3-7173852-678607 2016-12-20 17:10:45 expired
f26-python3-7173789-678607 2016-12-20 17:10:07 expired
f26-python3-7173663-678607 2016-12-20 17:08:17 expired
f26-python3-7173656-678607 2016-12-20 17:08:12 expired
f26-python3-7173579-678607 2016-12-20 17:07:22 expired
f26-python3-7173556-678607 2016-12-20 17:07:13 expired
f26-python3-7173549-678607 2016-12-20 17:07:10 expired
f26-python3-7173521-678607 2016-12-20 17:07:04 expired
f26-python3-7173501-678607 2016-12-20 17:07:01 expired
f26-python3-7173441-678607 2016-12-20 17:06:20 expired
f26-python3-7173432-678607 2016-12-20 17:06:18 expired
f26-python3-7173388-678607 2016-12-20 17:05:58 expired
f26-build-7173377-678605 2016-12-20 17:05:36 expired
f26-build-7173369-678605 2016-12-20 17:00:34 expired
f26-build-7173364-678605 2016-12-20 16:58:52 expired
f26-build-7173358-678605 2016-12-20 16:54:44 expired
f26-build-7173353-678605 2016-12-20 16:51:57 expired
f26-build-7173347-678605 2016-12-20 16:44:35 expired
f26-build-7173334-678605 2016-12-20 16:33:05 expired
f26-build-7173317-678605 2016-12-20 16:26:03 expired
f26-python3-7173309-678607 2016-12-20 16:23:14 expired
f26-build-7173304-678605 2016-12-20 16:22:33 expired
f26-python3-7173303-678607 2016-12-20 16:22:15 expired
f26-python3-7173291-678607 2016-12-20 16:20:56 expired
f26-build-7173290-678605 2016-12-20 16:17:14 expired
f26-python3-7173285-678603 2016-12-20 16:15:53 expired
f26-build-7173277-678598 2016-12-20 16:13:47 expired
f26-python3-7173266-678603 2016-12-20 16:12:11 expired
f26-build-7173265-678598 2016-12-20 16:12:05 expired
f26-python3-7173243-678603 2016-12-20 16:10:35 expired
f26-build-7173242-678598 2016-12-20 16:10:31 expired
f26-python3-7173086-678603 2016-12-20 16:08:05 expired
f26-python3-7172852-678603 2016-12-20 16:05:15 expired
f26-python3-7172844-678603 2016-12-20 16:05:10 expired